Kingman, AZ

2:53 AM MST on February 20, 2018 (GMT -0700)
Kingman

Weather History for KIGM - August, 2012

Change the Weather History Date:

Tuesday, August 28, 2012

  Actual Average Record
Temperature  
Mean Temperature 83 °F 81 °F  
Max Temperature 99 °F 95 °F 107 °F (2009)
Min Temperature 66 °F 68 °F 50 °F (1920)
Degree Days  
Heating Degree Days 0 0  
Month to date heating degree days 0 0  
Since 1 June heating degree days 0 3  
Since 1 July heating degree days 0 0  
Cooling Degree Days 18 16  
Month to date cooling degree days 522 496  
Year to date cooling degree days 1781 1655  
Since 1 June cooling degree days 1525 1457  
Growing Degree Days 32 (Base 50)    
Moisture  
Dew Point 50 °F    
Average Humidity 32    
Maximum Humidity 47    
Minimum Humidity 17    
Precipitation  
Precipitation T in 0.06 in 0.62 in (1971)
Month to date precipitation 1.56 0.81  
Year to date precipitation 6.27 5.11  
Sea Level Pressure  
Sea Level Pressure 29.86 in    
Wind  
Wind Speed 7 mph (SSE)    
Max Wind Speed 30 mph    
Max Gust Speed 36 mph    
Visibility 10 miles    
Events Rain , Thunderstorm    
T = Trace of Precipitation, MM = Missing Value Source: NWS Daily Summary

Daily Weather History Graph

Daily Weather History Graph

Search for Another Location

Airport or City:

Trip Planner

Search our weather history database for the weather conditions in past years. The results will help you decide how hot, cold, wet, or windy it might be!

Date:

Astronomy

Aug. 28, 2012 Rise Set
Actual Time 6:05 AM MST 7:07 PM MST
Civil Twilight 5:39 AM MST 7:33 PM MST
Nautical Twilight 5:08 AM MST 8:04 PM MST
Astronomical Twilight 4:36 AM MST 8:36 PM MST
Moon 5:09 PM MST (8/28) 3:04 AM MST (8/28)
Length of Visible Light 13h 53m
Length of Day
13h 01m
Waxing Gibbous, 91% of the Moon is Illuminated
Aug 28
Waxing Gibbous
Aug 31
Full
Sep 8
Last Quarter
Sep 15
New
Sep 22
First Quarter

Hourly Weather History & Observations

Time (MST) Temp. Heat Index Dew Point Humidity Pressure Visibility Wind Dir Wind Speed Gust Speed Precip Events Conditions
12:51 AM 71.1 °F - 44.1 °F 38% 29.85 in 10.0 mi SSW 4.6 mph - N/A   Clear
1:51 AM 69.1 °F - 45.0 °F 42% 29.86 in 10.0 mi Calm Calm - N/A   Clear
2:51 AM 69.1 °F - 44.1 °F 40% 29.86 in 10.0 mi ESE 3.5 mph - N/A   Clear
3:51 AM 66.9 °F - 45.0 °F 45% 29.86 in 10.0 mi Calm Calm - N/A   Clear
4:51 AM 66.9 °F - 45.0 °F 45% 29.86 in 10.0 mi Calm Calm - N/A   Clear
5:51 AM 70.0 °F - 44.1 °F 39% 29.86 in 10.0 mi Calm Calm - N/A   Clear
6:51 AM 70.0 °F - 48.0 °F 46% 29.88 in 10.0 mi Calm Calm - N/A   Clear
7:51 AM 81.0 °F - 45.0 °F 28% 29.89 in 10.0 mi Calm Calm - N/A   Clear
8:51 AM 86.0 °F - 43.0 °F 22% 29.88 in 10.0 mi North 5.8 mph - N/A   Clear
9:51 AM 91.9 °F - 51.1 °F 25% 29.88 in 10.0 mi East 3.5 mph - N/A   Clear
10:51 AM 93.9 °F - 48.0 °F 21% 29.88 in 10.0 mi WSW 9.2 mph - N/A   Clear
11:51 AM 96.1 °F - 44.1 °F 17% 29.87 in 10.0 mi Variable 4.6 mph - N/A   Clear
12:51 PM 97.0 °F - 44.1 °F 16% 29.86 in 10.0 mi Calm Calm - N/A   Clear
1:51 PM 98.1 °F - 48.9 °F 19% 29.84 in 10.0 mi SW 10.4 mph 19.6 mph N/A   Clear
2:51 PM 95.0 °F - 50.0 °F 22% 29.82 in 10.0 mi South 17.3 mph 24.2 mph N/A   Clear
3:51 PM 95.0 °F - 50.0 °F 22% 29.81 in 10.0 mi SSW 9.2 mph - N/A   Clear
3:59 PM 95.0 °F - 50.0 °F 22% 30.02 in 10.0 mi WSW 4.6 mph - N/A Thunderstorm Clear
4:43 PM 87.8 °F 86.5 °F 57.2 °F 35% 30.02 in 10.0 mi ESE 16.1 mph 27.6 mph N/A Thunderstorm Thunderstorm
4:51 PM 89.1 °F 87.1 °F 55.0 °F 31% 29.82 in 10.0 mi SE 19.6 mph - N/A Thunderstorm Thunderstorm
4:57 PM 87.8 °F 86.1 °F 55.4 °F 33% 30.02 in 10.0 mi SE 27.6 mph 33.4 mph N/A   Overcast
5:51 PM 86.0 °F 84.7 °F 55.9 °F 36% 29.81 in 10.0 mi ESE 13.8 mph 24.2 mph 0.00 in Rain Light Rain
6:51 PM 90.0 °F 87.5 °F 53.1 °F 28% 29.78 in 10.0 mi SSE 8.1 mph - 0.00 in   Clear
7:51 PM 82.0 °F 82.7 °F 61.0 °F 49% 29.79 in 10.0 mi ESE 17.3 mph - N/A   Clear
8:51 PM 81.0 °F 80.7 °F 55.0 °F 41% 29.81 in 10.0 mi SE 11.5 mph - N/A   Clear
9:51 PM 75.9 °F - 54.0 °F 46% 29.82 in 10.0 mi SE 4.6 mph - N/A   Clear
10:51 PM 75.9 °F - 54.0 °F 46% 29.81 in 10.0 mi SE 9.2 mph - N/A   Clear
11:51 PM 77.0 °F - 54.0 °F 45% 29.80 in 10.0 mi SSE 6.9 mph - N/A   Clear